This is the latest recevied weather packets stored in our database for station/object IW1CBG-23. If no packets are shown the sender has not sent any weather packets the latest 10 day(s).
| Time | Temp. | Humidity | Pressure | Rain* | Wind** | Luminosity | Snow |
|---|---|---|---|---|---|---|---|
| 1788087390 | 25.56° C | 59% | 1014.5 hPa | - | - | - | - |
| 1788086151 | 25° C | 60% | 1014.7 hPa | - | - | - | - |
| 1788084910 | 25.56° C | 63% | 1014.9 hPa | - | - | - | - |
| 1788083672 | 24.44° C | 63% | 1014.9 hPa | - | - | - | - |
| 1788082434 | 23.33° C | 66% | 1015 hPa | - | - | - | - |
| 1788081196 | 22.78° C | 70% | 1015 hPa | - | - | - | - |
| 1788079956 | 21.67° C | 74% | 1015 hPa | - | - | - | - |
| 1788077480 | 20° C | 81% | 1014.8 hPa | - | - | - | - |
| 1788076246 | 20° C | 82% | 1014.7 hPa | - | - | - | - |
| 1788075013 | 20° C | 83% | 1014.6 hPa | - | - | - | - |
| 1788073774 | 20° C | 83% | 1014.4 hPa | - | - | - | - |
| 1788072534 | 19.44° C | 86% | 1014.4 hPa | - | - | - | - |
| 1788071295 | 18.89° C | 89% | 1014.3 hPa | - | - | - | - |
| 1788070056 | 18.33° C | 93% | 1014.2 hPa | - | - | - | - |
| 1788068818 | 17.78° C | 94% | 1014.1 hPa | - | - | - | - |
| 1788067579 | 17.22° C | 98% | 1013.9 hPa | - | - | - | - |
| 1788066341 | 16.67° C | 98% | 1013.9 hPa | - | - | - | - |
| 1788065104 | 17.22° C | 95% | 1013.7 hPa | - | - | - | - |
| 1788063866 | 17.22° C | 93% | 1013.7 hPa | - | - | - | - |
| 1788062629 | 17.78° C | 90% | 1013.7 hPa | - | - | - | - |
| 1788039120 | 19.44° C | 94% | 1013.8 hPa | - | - | - | - |
| 1788037881 | 19.44° C | 99% | 1013.7 hPa | - | - | - | - |
| 1788034168 | 19.44° C | 99% | 1013.5 hPa | - | - | - | - |
| 1788027980 | 17.78° C | 99% | 1012.8 hPa | - | - | - | - |
| 1788026743 | 17.78° C | 99% | 1012.6 hPa | - | - | - | - |
* Rain since midnight (hover to see other rain measurements)
** Current wind speed in m/s (hover to see current wind gust speed)